Regional Weather Roundup
Issued by NWS

Home | Current Version | Previous Version | Text Only | Print | Product List | Glossary On
Versions: 1 2 3 4 5 6 7 8 9 10 11 12 13 14 15 16 17 18 19 20 21 22 23 24 25 26 27 28 29 30 31 32 33 34 35 36 37 38 39 40 41 42 43 44 45 46 47 48 49 50
000
ASUS43 KDTX 211510
RWRMI
MICHIGAN HOURLY REGIONAL WEATHER ROUNDUP
NATIONAL WEATHER SERVICE DETROIT/PONTIAC MI
1000 AM EST SUN JAN 21 2018

NOTE: "FAIR" INDICATES FEW OR NO CLOUDS BELOW 12,000 FEET WITH NO
SIGNIFICANT WEATHER AND/OR OBSTRUCTION TO VISIBILITY.

MIZ047>049-052>055-059>063-066>070-074>076-081>083-211600-
SOUTHEAST LOWER MICHIGAN

CITY           SKY/WX    TMP DP  RH WIND       PRES   REMARKS
ADRIAN         FOG       35  35 100 S3        30.07R VSB<1/4
ALMA           CLOUDY    34  34 100 CALM      30.04R FOG
ANN ARBOR      FOG       36  36 100 VRB3      30.05R VSB 1/4
BAD AXE        PTSUNNY   33  32  99 S5        30.05R FOG     WCI  28
CARO           CLOUDY    34  32  92 CALM      30.03F FOG
DETROIT CITY   FOG       37  36  96 S6        30.07R VSB 1   WCI  32
DETROIT        FOG       37  36  96 CALM      30.07R VSB 1/4
FLINT          CLOUDY    36  34  92 S6        30.04F FOG     WCI  31
GROSSE ILE     FOG       35  34  97 S7        30.06S VSB<1/4 WCI  29
HILLSDALE      FOG       36  34  93 CALM      30.03R VSB<1/4
HOWELL         CLOUDY    36  36 100 S3        30.03S FOG

CITY           SKY/WX    TMP DP  RH WIND       PRES   REMARKS
JACKSON        CLOUDY    36  36 100 S7        30.04R FOG     WCI  30
LAMBERTVILLE   FOG       38  37  97 S3        30.07S VSB 1/2
LANSING        CLOUDY    36  35  96 SE3       30.04S FOG
LAPEER         CLOUDY    36  35  96 S3        30.04F FOG
MASON          CLOUDY    37  34  87 S5        30.05R FOG     WCI  34
MONROE         CLOUDY    37  36  93 CALM      30.06S FOG
MT. CLEMENS    FOG       36  35  94 S5        30.06R VSB 1   WCI  32
PONTIAC        CLOUDY    35  35 100 SE3       30.02F FOG
PORT HOPE        N/A     35  33  92 SW7       30.03S WCI  29
PORT HURON     CLOUDY    36  34  93 S5        30.06F FOG     WCI  32
TRI CITIES     FOG       34  34 100 SE5       30.04S VSB 1   WCI  30
MIDLAND        FOG       35  35 100 CALM      30.04R VSB<1/4
TROY           CLOUDY    37  36  95 CALM      30.07S FOG
SAGINAW HB     CLOUDY    34  32  93 CALM      30.04S FOG
$$
MIZ043>046-050>051-056>058-064>065-071>073-077>080-211600-
SOUTHWEST LOWER MICHIGAN

CITY           SKY/WX    TMP DP  RH WIND       PRES   REMARKS
BATTLE CREEK   FOG       36  36 100 S5        30.03R VSB 3/4 WCI  32
BENTON HARBOR  CLOUDY    39  36  89 S7        30.01R FOG     WCI  34
BIG RAPIDS     FOG       33  32  97 CALM      30.01R VSB<1/4
COLDWATER      FOG       37  37 100 SE3       30.03S VSB 1
FREMONT        CLOUDY    35  34  96 CALM      30.02R FOG
HOLLAND        CLOUDY    38  35  89 SE5       30.02R FOG     WCI  34
GRAND RAPIDS   CLOUDY    37  34  89 CALM      30.02R FOG
IONIA          CLOUDY    36  35  98 S6        30.02R FOG     WCI  31
KALAMAZOO      FOG       37  36  96 S3        30.03R VSB 1/4
LUDINGTON      FOG       34  34 100 CALM      30.01R VSB<1/4
MARSHALL       FOG       36  35  98 SE3       30.03S VSB 3/4
MOUNT PLEASANT CLOUDY    35  34  96 CALM      30.03R FOG
MUSKEGON       CLOUDY    37  34  89 E3        30.02R FOG
SOUTH HAVEN    CLOUDY    39  36  90 S3        30.02R FOG
$$
MIZ016>042-211600-
NORTHERN LOWER MICHIGAN

CITY           SKY/WX    TMP DP  RH WIND       PRES   REMARKS
ALPENA         CLOUDY    33  32  96 CALM      30.03R
BEAVER ISLAND  CLOUDY    35  34  97 CALM      30.00R FOG
BELLAIRE       CLOUDY    33  32  96 CALM      30.00S
CADILLAC       FOG       30  30  99 CALM      29.99S VSB<1/4
CHARLEVOIX     CLOUDY    36  32  87 CALM      30.02R
FRANKFORT      CLOUDY    32  32 100 SE5       30.00R FOG     WCI  28
GAYLORD        CLOUDY    33  32  96 S5        29.98R WCI  29
GRAYLING       CLOUDY    34  30  84 CALM      30.01R
HARBOR SPRINGS CLOUDY    33  32  95 NE8       29.99R WCI  26
HOUGHTON LAKE  FAIR      32  31  96 CALM      30.01S FOG
MANISTEE       MIX PCPN  32  31  96 E6        30.01R VSB<1/4 WCI  26
OSCODA         PTSUNNY   30  28  93 SW6       30.03S FOG     WCI  24
PELLSTON       CLOUDY    33  31  92 CALM      30.00R
ROGERS CITY    CLOUDY    34  31  90 S3        30.02S
TRAVERSE CITY  PTSUNNY   38  32  79 VRB3      29.99R
$$
MIZ007>008-015-211600-
EASTERN UPPER MICHIGAN

CITY           SKY/WX    TMP DP  RH WIND       PRES   REMARKS
KINROSS        PTSUNNY   31  31 100 SE5       30.01R FOG     WCI  26
MACKINAC ISLAN PTSUNNY   35  31  87 E3        30.00R
NEWBERRY       FOG       32  31  97 S6        29.99R VSB<1/4 WCI  26
S. S. MARIE    CLOUDY    32  29  88 E5        30.01S WCI  27
MUNISING         N/A     30  29  96 S3        29.98R
$$
MIZ004>006-011>014-085-211600-
CENTRAL UPPER MICHIGAN

CITY           SKY/WX    TMP DP  RH WIND       PRES   REMARKS
MANISTIQUE     FOG       32  32 100 CALM      29.98S VSB<1/4
ESCANABA       CLOUDY    32  29  88 CALM      29.98R
MENOMINEE      CLOUDY    34  32  92 CALM      29.99R FOG
SAWYER-GWINN   PTSUNNY   34  30  86 CALM      29.96R
$$
MIZ001>003-009>011-084-211600-
WESTERN UPPER MICHIGAN

CITY           SKY/WX    TMP DP  RH WIND       PRES   REMARKS
IRON MOUNTAIN  CLOUDY    32  28  85 CALM      29.95R
HOUGHTON       FAIR      29  25  85 W3        29.96R
COPPER HARBOR    N/A     31  29  92 CALM      29.99R
IRONWOOD       FOG       25  25 100 CALM      29.97S VSB 3/4
$$

ABBREVIATIONS USED IN REMARKS
   TC - TEMPERATURE IN CELSIUS
  WCI - WIND CHILL INDEX
   HX - HEAT INDEX
  VSB - VISIBILITY




USA.gov is the U.S. government's official web portal to all federal, state and local government web resources and services.